| time (UTC) | temp C | wind direction | speed KPH | gust KPH | rain 1hr cm | rain 24hr cm | rain mn cm | humidity % | barometer mb |
| 20260507113356 | 5 | 254 | 8.0 | 16.1 | 0.00 | 0.00 | 0.00 | 77 | 1015.5 |
| 20260507113129 | 5 | 269 | 8.0 | 14.5 | 0.00 | 0.00 | 0.00 | 78 | 1015.5 |
| 20260507112621 | 5 | 261 | 6.4 | 12.9 | 0.00 | 0.00 | 0.00 | 78 | 1015.4 |
| 20260507111849 | 5 | 250 | 6.4 | 11.3 | 0.00 | 0.00 | 0.00 | 79 | 1015.2 |
| 20260507111844 | 5 | 254 | 6.4 | 11.3 | 0.00 | 0.00 | 0.00 | 79 | 1015.3 |
| 20260507110840 | 5 | 254 | 6.4 | 11.3 | 0.00 | 0.00 | 0.00 | 79 | 1015.2 |
| 20260507110341 | 5 | 252 | 6.4 | 11.3 | 0.00 | 0.00 | 0.00 | 79 | 1015.1 |
| 20260507110112 | 5 | 246 | 4.8 | 11.3 | 0.00 | 0.00 | 0.00 | 79 | 1015.0 |
| 20260507105340 | 5 | 252 | 4.8 | 9.7 | 0.00 | 0.00 | 0.00 | 79 | 1014.9 |
| 20260507104840 | 5 | 254 | 3.2 | 9.7 | 0.00 | 0.00 | 0.00 | 79 | 1014.9 |
| 20260507104340 | 5 | 257 | 3.2 | 9.7 | 0.00 | 0.00 | 0.00 | 79 | 1014.9 |
| 20260507103840 | 5 | 257 | 4.8 | 9.7 | 0.00 | 0.00 | 0.00 | 78 | 1015.0 |
| 20260507103340 | 5 | 263 | 4.8 | 9.7 | 0.00 | 0.00 | 0.00 | 79 | 1014.9 |
| 20260507102838 | 4 | 262 | 3.2 | 6.4 | 0.00 | 0.00 | 0.00 | 79 | 1014.9 |
| 20260507102338 | 4 | 262 | 3.2 | 6.4 | 0.00 | 0.00 | 0.00 | 79 | 1015.0 |
| 20260507101838 | 4 | 260 | 3.2 | 6.4 | 0.00 | 0.00 | 0.00 | 79 | 1014.9 |
| 20260507101610 | 4 | 260 | 3.2 | 6.4 | 0.00 | 0.00 | 0.00 | 80 | 1014.8 |
| 20260507100843 | 5 | 260 | 3.2 | 6.4 | 0.00 | 0.00 | 0.00 | 80 | 1014.8 |
| 20260507100338 | 5 | 260 | 3.2 | 6.4 | 0.00 | 0.00 | 0.00 | 80 | 1014.8 |
| 20260507100108 | 5 | 260 | 3.2 | 6.4 | 0.00 | 0.00 | 0.00 | 80 | 1014.7 |
| 20260507095603 | 5 | 261 | 3.2 | 6.4 | 0.00 | 0.00 | 0.00 | 80 | 1014.8 |
| 20260507095056 | 5 | 260 | 3.2 | 6.4 | 0.00 | 0.00 | 0.00 | 80 | 1014.8 |
| 20260507094320 | 5 | 261 | 3.2 | 4.8 | 0.00 | 0.00 | 0.00 | 80 | 1014.8 |
| 20260507093813 | 5 | 261 | 3.2 | 4.8 | 0.00 | 0.00 | 0.00 | 80 | 1014.9 |
| 20260507093309 | 5 | 260 | 3.2 | 6.4 | 0.00 | 0.00 | 0.00 | 80 | 1014.8 |
| 20260507093034 | 5 | 260 | 3.2 | 6.4 | 0.00 | 0.00 | 0.00 | 79 | 1014.7 |
| 20260507092256 | 5 | 260 | 3.2 | 6.4 | 0.00 | 0.00 | 0.00 | 79 | 1014.7 |
| 20260507091750 | 5 | 260 | 3.2 | 6.4 | 0.00 | 0.00 | 0.00 | 79 | 1014.6 |
| 20260507091514 | 5 | 260 | 3.2 | 6.4 | 0.00 | 0.00 | 0.00 | 79 | 1014.7 |
| 20260507091009 | 5 | 261 | 3.2 | 4.8 | 0.00 | 0.00 | 0.00 | 79 | 1014.6 |
| 20260507090231 | 5 | 261 | 3.2 | 4.8 | 0.00 | 0.00 | 0.00 | 79 | 1014.6 |
| 20260507085726 | 5 | 261 | 3.2 | 4.8 | 0.00 | 0.00 | 0.00 | 79 | 1014.6 |
| 20260507085721 | 5 | 261 | 3.2 | 4.8 | 0.00 | 0.00 | 0.00 | 79 | 1014.6 |
| 20260507084713 | 5 | 261 | 1.6 | 3.2 | 0.00 | 0.00 | 0.00 | 79 | 1014.7 |
| 20260507084308 | 5 | 261 | 3.2 | 4.8 | 0.00 | 0.00 | 0.00 | 78 | 1014.6 |
| 20260507083155 | 5 | 261 | 3.2 | 6.4 | 0.00 | 0.00 | 0.00 | 78 | 1014.5 |
| 20260507082650 | 5 | 261 | 3.2 | 6.4 | 0.00 | 0.00 | 0.00 | 78 | 1014.5 |
| 20260507082144 | 6 | 261 | 3.2 | 6.4 | 0.00 | 0.00 | 0.00 | 77 | 1014.5 |
| 20260507081637 | 6 | 261 | 3.2 | 6.4 | 0.00 | 0.03 | 0.00 | 77 | 1014.5 |
| 20260507081131 | 6 | 261 | 3.2 | 6.4 | 0.00 | 0.03 | 0.00 | 77 | 1014.5 |
| 20260507080856 | 6 | 261 | 3.2 | 11.3 | 0.00 | 0.03 | 0.00 | 77 | 1014.5 |
| 20260507080119 | 6 | 262 | 4.8 | 11.3 | 0.00 | 0.03 | 0.00 | 76 | 1014.6 |
| 20260507075613 | 6 | 262 | 4.8 | 11.3 | 0.00 | 0.03 | 0.00 | 76 | 1014.6 |
| 20260507075107 | 6 | 262 | 3.2 | 9.7 | 0.00 | 0.03 | 0.00 | 76 | 1014.5 |
| 20260507074602 | 6 | 266 | 3.2 | 9.7 | 0.00 | 0.03 | 0.00 | 76 | 1014.5 |
| 20260507074558 | 6 | 267 | 4.8 | 9.7 | 0.00 | 0.03 | 0.00 | 76 | 1014.5 |
| 20260507073552 | 6 | 274 | 3.2 | 9.7 | 0.00 | 0.03 | 0.00 | 76 | 1014.5 |
| 20260507073051 | 6 | 271 | 4.8 | 9.7 | 0.00 | 0.03 | 0.00 | 76 | 1014.7 |
| 20260507072552 | 6 | 0 | 4.8 | 9.7 | 0.00 | 0.03 | 0.00 | 76 | 1014.6 |
| 20260507072324 | 6 | 267 | 6.4 | 12.9 | 0.00 | 0.03 | 0.00 | 76 | 1014.6 |
| 20260507071552 | 6 | 261 | 6.4 | 12.9 | 0.00 | 0.05 | 0.00 | 76 | 1014.5 |
| 20260507071052 | 7 | 259 | 6.4 | 12.9 | 0.00 | 0.05 | 0.00 | 76 | 1014.5 |
| 20260507070554 | 7 | 268 | 6.4 | 11.3 | 0.00 | 0.05 | 0.00 | 77 | 1014.6 |
| 20260507070052 | 7 | 251 | 6.4 | 11.3 | 0.00 | 0.05 | 0.00 | 77 | 1014.5 |
| 20260507065823 | 7 | 245 | 6.4 | 11.3 | 0.00 | 0.08 | 0.00 | 77 | 1014.6 |
| 20260507065052 | 7 | 0 | 4.8 | 11.3 | 0.00 | 0.08 | 0.00 | 77 | 1014.7 |
| 20260507064552 | 7 | 263 | 4.8 | 9.7 | 0.00 | 0.10 | 0.00 | 77 | 1014.6 |
| 20260507064052 | 7 | 0 | 6.4 | 11.3 | 0.00 | 0.10 | 0.00 | 77 | 1014.6 |
| 20260507063822 | 7 | 265 | 4.8 | 11.3 | 0.00 | 0.10 | 0.00 | 77 | 1014.6 |
| 20260507063052 | 7 | 262 | 4.8 | 9.7 | 0.00 | 0.13 | 0.00 | 77 | 1014.6 |
| 20260507062551 | 7 | 0 | 4.8 | 9.7 | 0.00 | 0.13 | 0.00 | 77 | 1014.7 |
| 20260507062051 | 7 | 274 | 4.8 | 9.7 | 0.00 | 0.13 | 0.00 | 77 | 1014.7 |
| 20260507061816 | 7 | 0 | 4.8 | 9.7 | 0.00 | 0.15 | 0.00 | 78 | 1014.8 |
| 20260507061318 | 7 | 255 | 4.8 | 9.7 | 0.00 | 0.15 | 0.00 | 78 | 1014.7 |
| 20260507060545 | 7 | 256 | 4.8 | 9.7 | 0.00 | 0.15 | 0.00 | 79 | 1014.7 |
| 20260507060318 | 7 | 0 | 4.8 | 6.4 | 0.00 | 0.15 | 0.00 | 80 | 1014.7 |
| 20260507055544 | 7 | 255 | 4.8 | 6.4 | 0.00 | 0.15 | 0.00 | 80 | 1014.7 |
| 20260507055313 | 7 | 255 | 3.2 | 9.7 | 0.00 | 0.18 | 0.00 | 81 | 1014.7 |
| 20260507054814 | 7 | 256 | 4.8 | 9.7 | 0.00 | 0.18 | 0.00 | 82 | 1014.8 |
| 20260507054039 | 6 | 257 | 4.8 | 8.0 | 0.00 | 0.18 | 0.00 | 83 | 1014.8 |
| 20260507053539 | 6 | 304 | 3.2 | 6.4 | 0.00 | 0.18 | 0.00 | 83 | 1014.8 |
| 20260507053039 | 6 | 311 | 3.2 | 6.4 | 0.00 | 0.20 | 0.00 | 84 | 1014.8 |
| 20260507052540 | 6 | 331 | 1.6 | 4.8 | 0.00 | 0.23 | 0.00 | 84 | 1014.7 |
| 20260507052040 | 6 | 333 | 0.0 | 3.2 | 0.00 | 0.23 | 0.00 | 84 | 1014.8 |
| 20260507051810 | 6 | 333 | 0.0 | 0.0 | 0.00 | 0.25 | 0.00 | 84 | 1014.7 |
| 20260507051036 | 6 | 334 | 0.0 | 6.4 | 0.00 | 0.28 | 0.00 | 83 | 1014.8 |
| 20260507050536 | 6 | 334 | 0.0 | 6.4 | 0.00 | 0.28 | 0.00 | 83 | 1014.7 |
| 20260507050036 | 6 | 335 | 1.6 | 6.4 | 0.00 | 0.30 | 0.00 | 83 | 1014.8 |
| 20260507045536 | 7 | 335 | 1.6 | 6.4 | 0.00 | 0.30 | 0.00 | 82 | 1014.9 |
| 20260507045035 | 7 | 335 | 0.0 | 3.2 | 0.00 | 0.30 | 0.00 | 81 | 1014.8 |
| 20260507044536 | 7 | 0 | 1.6 | 3.2 | 0.00 | 0.33 | 0.00 | 81 | 1014.8 |
| 20260507044035 | 7 | 335 | 1.6 | 3.2 | 0.00 | 0.33 | 0.00 | 80 | 1014.8 |
| 20260507043535 | 7 | 334 | 1.6 | 3.2 | 0.00 | 0.33 | 0.00 | 80 | 1014.9 |
| 20260507043035 | 7 | 335 | 0.0 | 3.2 | 0.00 | 0.33 | 0.00 | 79 | 1014.8 |
| 20260507042536 | 7 | 0 | 0.0 | 6.4 | 0.00 | 0.33 | 0.00 | 79 | 1014.8 |
| 20260507042036 | 7 | 336 | 1.6 | 6.4 | 0.00 | 0.36 | 0.00 | 78 | 1014.8 |
| 20260507041536 | 7 | 336 | 1.6 | 6.4 | 0.00 | 0.36 | 0.00 | 77 | 1014.8 |
| 20260507041036 | 8 | 336 | 1.6 | 6.4 | 0.00 | 0.36 | 0.00 | 77 | 1014.8 |
| 20260507040536 | 8 | 232 | 1.6 | 4.8 | 0.00 | 0.36 | 0.00 | 76 | 1014.8 |
| 20260507040035 | 8 | 232 | 1.6 | 8.0 | 0.00 | 0.38 | 0.00 | 76 | 1014.9 |
| 20260507035535 | 8 | 232 | 3.2 | 8.0 | 0.00 | 0.38 | 0.38 | 76 | 1014.8 |
| 20260507035035 | 8 | 232 | 4.8 | 8.0 | 0.00 | 0.38 | 0.38 | 76 | 1014.7 |
| 20260507034804 | 8 | 232 | 3.2 | 8.0 | 0.00 | 0.41 | 0.38 | 75 | 1014.7 |
| 20260507034031 | 8 | 240 | 3.2 | 8.0 | 0.00 | 0.41 | 0.38 | 75 | 1014.8 |
| 20260507033530 | 8 | 240 | 4.8 | 8.0 | 0.00 | 0.41 | 0.38 | 75 | 1014.8 |
| 20260507033029 | 8 | 240 | 3.2 | 8.0 | 0.00 | 0.43 | 0.38 | 75 | 1014.7 |
| 20260507032527 | 8 | 250 | 3.2 | 6.4 | 0.00 | 0.43 | 0.38 | 74 | 1014.8 |
| 20260507032027 | 8 | 250 | 4.8 | 6.4 | 0.00 | 0.43 | 0.38 | 74 | 1014.8 |
| 20260507031756 | 8 | 251 | 4.8 | 6.4 | 0.00 | 0.43 | 0.38 | 74 | 1014.9 |
| 20260507030525 | 8 | 265 | 3.2 | 6.4 | 0.00 | 0.46 | 0.38 | 73 | 1014.9 |
| 20260507030025 | 8 | 265 | 3.2 | 6.4 | 0.00 | 0.46 | 0.38 | 73 | 1014.9 |
| 20260507025524 | 8 | 265 | 3.2 | 6.4 | 0.00 | 0.46 | 0.38 | 73 | 1014.9 |
| 20260507025025 | 8 | 265 | 1.6 | 4.8 | 0.00 | 0.48 | 0.38 | 72 | 1015.0 |
| 20260507024523 | 8 | 266 | 1.6 | 3.2 | 0.00 | 0.51 | 0.38 | 73 | 1015.0 |
| 20260507024022 | 8 | 266 | 1.6 | 3.2 | 0.00 | 0.53 | 0.38 | 73 | 1015.0 |
| 20260507023522 | 8 | 266 | 1.6 | 3.2 | 0.00 | 0.56 | 0.38 | 73 | 1015.0 |
| 20260507023020 | 8 | 266 | 1.6 | 3.2 | 0.00 | 0.58 | 0.38 | 75 | 1015.1 |
| 20260507022518 | 8 | 265 | 1.6 | 3.2 | 0.00 | 0.61 | 0.38 | 75 | 1015.0 |
| 20260507022251 | 8 | 0 | 1.6 | 3.2 | 0.00 | 0.64 | 0.38 | 76 | 1015.1 |
| 20260507021514 | 8 | 0 | 1.6 | 3.2 | 0.00 | 0.66 | 0.38 | 77 | 1015.0 |
| 20260507021008 | 8 | 0 | 0.0 | 3.2 | 0.00 | 0.69 | 0.38 | 80 | 1015.0 |
| 20260507020733 | 8 | 0 | 0.0 | 0.0 | 0.00 | 0.69 | 0.38 | 81 | 1015.0 |
| 20260507015956 | 8 | 0 | 0.0 | 0.0 | 0.00 | 0.71 | 0.38 | 79 | 1015.0 |
| 20260507015449 | 8 | 0 | 0.0 | 0.0 | 0.00 | 0.74 | 0.38 | 79 | 1014.9 |
| 20260507014944 | 8 | 0 | 0.0 | 0.0 | 0.00 | 0.76 | 0.38 | 78 | 1014.9 |
| 20260507014438 | 8 | 0 | 0.0 | 0.0 | 0.00 | 0.79 | 0.38 | 77 | 1014.8 |
| 20260507013932 | 8 | 0 | 0.0 | 0.0 | 0.00 | 0.81 | 0.38 | 75 | 1014.8 |
| 20260507013658 | 8 | 0 | 0.0 | 0.0 | 0.00 | 0.86 | 0.38 | 75 | 1014.8 |
| 20260507012920 | 8 | 0 | 0.0 | 0.0 | 0.00 | 0.86 | 0.38 | 76 | 1014.7 |
| 20260507012414 | 8 | 0 | 0.0 | 0.0 | 0.00 | 0.89 | 0.38 | 75 | 1014.5 |
| 20260507011908 | 9 | 0 | 0.0 | 0.0 | 0.00 | 0.91 | 0.38 | 75 | 1014.5 |
| 20260507011402 | 9 | 0 | 0.0 | 1.6 | 0.00 | 0.91 | 0.38 | 73 | 1014.5 |
| 20260507010856 | 9 | 0 | 0.0 | 1.6 | 0.00 | 0.91 | 0.38 | 70 | 1014.5 |
| 20260507010350 | 10 | 0 | 0.0 | 1.6 | 0.00 | 0.94 | 0.38 | 72 | 1014.5 |
| 20260507005844 | 10 | 0 | 0.0 | 1.6 | 0.00 | 0.97 | 0.38 | 73 | 1014.5 |
| 20260507005339 | 10 | 0 | 0.0 | 1.6 | 0.00 | 0.97 | 0.38 | 70 | 1014.5 |
| 20260507004832 | 10 | 0 | 0.0 | 3.2 | 0.00 | 0.99 | 0.38 | 68 | 1014.4 |
| 20260507004556 | 11 | 0 | 0.0 | 3.2 | 0.00 | 0.99 | 0.38 | 67 | 1014.5 |
| 20260507004050 | 11 | 0 | 0.0 | 3.2 | 0.00 | 1.02 | 0.38 | 64 | 1014.3 |
| 20260507003314 | 11 | 0 | 1.6 | 9.7 | 0.00 | 1.04 | 0.38 | 61 | 1014.3 |
| 20260507002809 | 11 | 0 | 3.2 | 9.7 | 0.00 | 1.04 | 0.38 | 60 | 1014.3 |
| 20260507002533 | 11 | 0 | 3.2 | 9.7 | 0.00 | 1.07 | 0.38 | 60 | 1014.3 |
| 20260507001756 | 11 | 266 | 4.8 | 8.0 | 0.00 | 1.07 | 0.38 | 59 | 1014.4 |
| 20260507001250 | 11 | 0 | 4.8 | 9.7 | 0.00 | 1.09 | 0.38 | 59 | 1014.3 |
| 20260507000744 | 11 | 268 | 4.8 | 11.3 | 0.00 | 1.09 | 0.38 | 58 | 1014.3 |
| 20260507000238 | 12 | 269 | 6.4 | 11.3 | 0.00 | 1.12 | 0.38 | 58 | 1014.3 |
| 20260506235732 | 12 | 243 | 4.8 | 11.3 | 0.00 | 1.12 | 0.38 | 57 | 1014.3 |
| 20260506235226 | 12 | 285 | 3.2 | 8.0 | 0.00 | 1.12 | 0.38 | 57 | 1014.2 |
| 20260506234721 | 12 | 285 | 4.8 | 8.0 | 0.00 | 1.14 | 0.38 | 56 | 1014.3 |
| 20260506234214 | 12 | 302 | 3.2 | 8.0 | 0.00 | 1.14 | 0.38 | 55 | 1014.2 |
| 20260506233708 | 12 | 310 | 3.2 | 6.4 | 0.00 | 1.14 | 0.38 | 55 | 1014.3 |
| 20260506233206 | 12 | 310 | 3.2 | 6.4 | 0.00 | 1.14 | 0.38 | 55 | 1014.3 |
| 20260506232707 | 12 | 310 | 3.2 | 6.4 | 0.00 | 1.14 | 0.38 | 56 | 1014.3 |
| 20260506232205 | 11 | 310 | 3.2 | 6.4 | 0.00 | 1.17 | 0.38 | 57 | 1014.4 |
| 20260506231707 | 11 | 315 | 1.6 | 4.8 | 0.00 | 1.17 | 0.38 | 58 | 1014.4 |
| 20260506231206 | 11 | 315 | 1.6 | 6.4 | 0.00 | 1.17 | 0.38 | 59 | 1014.5 |
| 20260506230705 | 11 | 316 | 3.2 | 6.4 | 0.00 | 1.17 | 0.38 | 58 | 1014.5 |
| 20260506230205 | 11 | 316 | 3.2 | 6.4 | 0.00 | 1.19 | 0.38 | 59 | 1014.5 |
| 20260506225706 | 11 | 316 | 3.2 | 6.4 | 0.00 | 1.19 | 0.38 | 57 | 1014.6 |
| 20260506225206 | 11 | 322 | 3.2 | 6.4 | 0.00 | 1.22 | 0.38 | 60 | 1014.5 |
| 20260506224706 | 11 | 322 | 3.2 | 6.4 | 0.00 | 1.24 | 0.38 | 58 | 1014.5 |
| 20260506224206 | 11 | 321 | 3.2 | 9.7 | 0.00 | 1.24 | 0.38 | 57 | 1014.6 |
| 20260506223705 | 11 | 320 | 4.8 | 9.7 | 0.00 | 1.24 | 0.38 | 58 | 1014.5 |
| 20260506223208 | 11 | 0 | 4.8 | 12.9 | 0.00 | 1.24 | 0.38 | 57 | 1014.6 |
| 20260506222704 | 11 | 0 | 6.4 | 12.9 | 0.00 | 1.24 | 0.38 | 56 | 1014.6 |
| 20260506222203 | 11 | 327 | 6.4 | 12.9 | 0.00 | 1.27 | 0.38 | 58 | 1014.5 |
| 20260506221704 | 11 | 333 | 6.4 | 12.9 | 0.00 | 1.27 | 0.38 | 57 | 1014.5 |
| 20260506221159 | 11 | 321 | 4.8 | 11.3 | 0.00 | 1.27 | 0.38 | 57 | 1014.5 |
| 20260506220659 | 11 | 334 | 4.8 | 16.1 | 0.00 | 1.27 | 0.38 | 59 | 1014.4 |
| 20260506220157 | 11 | 324 | 6.4 | 16.1 | 0.00 | 1.30 | 0.38 | 58 | 1014.4 |
| 20260506215657 | 11 | 303 | 8.0 | 16.1 | 0.00 | 1.32 | 0.38 | 57 | 1014.5 |
| 20260506215158 | 11 | 300 | 8.0 | 16.1 | 0.00 | 1.32 | 0.38 | 56 | 1014.4 |
| 20260506214929 | 11 | 0 | 6.4 | 16.1 | 0.00 | 1.37 | 0.38 | 56 | 1014.4 |
| 20260506214158 | 11 | 316 | 8.0 | 17.7 | 0.00 | 1.37 | 0.38 | 57 | 1014.4 |
| 20260506213659 | 12 | 0 | 8.0 | 17.7 | 0.00 | 1.37 | 0.38 | 56 | 1014.3 |
| 20260506213158 | 12 | 0 | 8.0 | 14.5 | 0.00 | 1.37 | 0.38 | 55 | 1014.4 |
| 20260506212658 | 12 | 0 | 8.0 | 19.3 | 0.00 | 1.37 | 0.38 | 54 | 1014.3 |
| 20260506212158 | 12 | 323 | 8.0 | 19.3 | 0.00 | 1.37 | 0.38 | 55 | 1014.2 |
| 20260506211929 | 12 | 280 | 11.3 | 19.3 | 0.00 | 1.37 | 0.38 | 57 | 1014.0 |
| 20260506211153 | 12 | 261 | 12.9 | 19.3 | 0.00 | 1.37 | 0.38 | 58 | 1013.8 |
| 20260506210654 | 12 | 256 | 11.3 | 19.3 | 0.00 | 1.37 | 0.38 | 58 | 1013.9 |
| 20260506210153 | 12 | 265 | 11.3 | 19.3 | 0.00 | 1.40 | 0.38 | 58 | 1013.8 |
| 20260506205653 | 12 | 258 | 11.3 | 19.3 | 0.00 | 1.40 | 0.38 | 59 | 1013.9 |
| 20260506205154 | 12 | 269 | 11.3 | 20.9 | 0.00 | 1.42 | 0.38 | 59 | 1013.9 |
| 20260506204654 | 12 | 236 | 8.0 | 20.9 | 0.00 | 1.45 | 0.38 | 60 | 1013.9 |
| 20260506204153 | 12 | 240 | 9.7 | 17.7 | 0.00 | 1.45 | 0.38 | 60 | 1013.8 |
| 20260506203654 | 12 | 266 | 9.7 | 17.7 | 0.00 | 1.47 | 0.38 | 58 | 1013.9 |
| 20260506203154 | 12 | 251 | 9.7 | 17.7 | 0.00 | 1.50 | 0.38 | 58 | 1013.8 |
| 20260506202921 | 12 | 318 | 8.0 | 16.1 | 0.00 | 1.52 | 0.38 | 58 | 1014.0 |
| 20260506202421 | 12 | 245 | 6.4 | 16.1 | 0.00 | 1.55 | 0.38 | 58 | 1014.0 |
| 20260506201649 | 12 | 0 | 8.0 | 16.1 | 0.00 | 1.60 | 0.38 | 59 | 1014.0 |
| 20260506201149 | 12 | 0 | 8.0 | 16.1 | 0.00 | 1.63 | 0.38 | 58 | 1014.0 |
| 20260506200650 | 11 | 0 | 8.0 | 19.3 | 0.00 | 1.65 | 0.38 | 58 | 1014.0 |
| 20260506200150 | 11 | 0 | 9.7 | 19.3 | 0.00 | 1.68 | 0.38 | 58 | 1014.0 |
| 20260506195650 | 11 | 0 | 11.3 | 19.3 | 0.00 | 1.70 | 0.38 | 58 | 1014.2 |
| 20260506195150 | 11 | 240 | 9.7 | 19.3 | 0.00 | 1.73 | 0.38 | 57 | 1014.3 |
| 20260506194920 | 11 | 255 | 8.0 | 17.7 | 0.00 | 1.75 | 0.38 | 58 | 1014.2 |
| 20260506194146 | 12 | 272 | 6.4 | 17.7 | 0.00 | 1.78 | 0.38 | 59 | 1014.0 |
| 20260506193645 | 11 | 236 | 8.0 | 17.7 | 0.00 | 1.78 | 0.38 | 58 | 1014.0 |
| 20260506193144 | 11 | 250 | 9.7 | 17.7 | 0.00 | 1.80 | 0.38 | 57 | 1014.0 |
| 20260506192644 | 11 | 252 | 9.7 | 17.7 | 0.00 | 1.80 | 0.38 | 57 | 1014.0 |
| 20260506192148 | 11 | 315 | 9.7 | 17.7 | 0.00 | 1.83 | 0.38 | 58 | 1013.9 |
| 20260506192142 | 11 | 248 | 8.0 | 17.7 | 0.00 | 1.80 | 0.38 | 58 | 1014.0 |
| 20260506191410 | 11 | 260 | 8.0 | 17.7 | 0.00 | 1.85 | 0.38 | 58 | 1013.9 |
| 20260506190909 | 11 | 302 | 8.0 | 16.1 | 0.00 | 1.88 | 0.38 | 57 | 1014.2 |
| 20260506190136 | 11 | 285 | 6.4 | 17.7 | 0.00 | 1.88 | 0.38 | 56 | 1014.2 |
| 20260506185636 | 11 | 270 | 6.4 | 17.7 | 0.00 | 1.91 | 0.38 | 56 | 1014.0 |
| 20260506185138 | 11 | 261 | 9.7 | 17.7 | 0.00 | 1.96 | 0.38 | 54 | 1014.2 |
| 20260506185133 | 11 | 324 | 9.7 | 17.7 | 0.00 | 1.93 | 0.38 | 55 | 1014.0 |
| 20260506184133 | 11 | 308 | 9.7 | 22.5 | 0.00 | 1.96 | 0.38 | 57 | 1014.2 |
| 20260506183633 | 11 | 317 | 8.0 | 22.5 | 0.00 | 1.98 | 0.38 | 56 | 1014.4 |
| 20260506183133 | 11 | 325 | 9.7 | 22.5 | 0.00 | 2.01 | 0.38 | 56 | 1014.3 |
| 20260506182902 | 12 | 273 | 11.3 | 22.5 | 0.00 | 2.03 | 0.38 | 55 | 1014.2 |
| 20260506182130 | 12 | 277 | 9.7 | 20.9 | 0.00 | 2.03 | 0.38 | 57 | 1014.2 |
| 20260506181625 | 12 | 282 | 8.0 | 17.7 | 0.00 | 2.06 | 0.38 | 56 | 1014.0 |
| 20260506181119 | 12 | 294 | 8.0 | 17.7 | 0.00 | 2.08 | 0.38 | 56 | 1013.8 |
| 20260506180613 | 12 | 316 | 9.7 | 17.7 | 0.00 | 2.08 | 0.38 | 56 | 1013.8 |
| 20260506180106 | 11 | 338 | 9.7 | 17.7 | 0.00 | 2.08 | 0.38 | 55 | 1014.0 |
| 20260506175601 | 12 | 331 | 9.7 | 17.7 | 0.00 | 2.08 | 0.38 | 56 | 1014.0 |
| 20260506175055 | 12 | 301 | 9.7 | 17.7 | 0.00 | 2.08 | 0.38 | 55 | 1014.0 |
| 20260506174820 | 12 | 329 | 8.0 | 17.7 | 0.00 | 2.08 | 0.38 | 56 | 1014.0 |
| 20260506174043 | 12 | 282 | 9.7 | 19.3 | 0.00 | 2.08 | 0.38 | 55 | 1014.0 |
| 20260506173537 | 12 | 311 | 8.0 | 19.3 | 0.00 | 2.08 | 0.38 | 55 | 1014.0 |
| 20260506173031 | 12 | 331 | 8.0 | 19.3 | 0.00 | 2.11 | 0.38 | 54 | 1014.0 |
| 20260506172755 | 12 | 333 | 9.7 | 24.1 | 0.00 | 2.11 | 0.38 | 56 | 1013.9 |
| 20260506172018 | 12 | 327 | 9.7 | 24.1 | 0.00 | 2.11 | 0.38 | 57 | 1014.0 |
| 20260506171513 | 12 | 312 | 8.0 | 17.7 | 0.00 | 2.13 | 0.38 | 59 | 1013.9 |
| 20260506171006 | 12 | 289 | 8.0 | 17.7 | 0.00 | 2.13 | 0.38 | 59 | 1013.9 |
| 20260506170500 | 12 | 286 | 8.0 | 17.7 | 0.00 | 2.16 | 0.38 | 58 | 1014.0 |
| 20260506165955 | 11 | 329 | 8.0 | 17.7 | 0.00 | 2.16 | 0.38 | 57 | 1014.0 |
| 20260506165449 | 11 | 337 | 9.7 | 17.7 | 0.00 | 2.16 | 0.38 | 55 | 1014.2 |
| 20260506164943 | 12 | 271 | 9.7 | 20.9 | 0.00 | 2.18 | 0.38 | 57 | 1014.3 |
| 20260506164437 | 12 | 299 | 8.0 | 20.9 | 0.00 | 2.18 | 0.38 | 58 | 1014.3 |
| 20260506163930 | 12 | 53 | 11.3 | 20.9 | 0.00 | 2.18 | 0.38 | 56 | 1014.3 |
| 20260506163424 | 12 | 318 | 9.7 | 20.9 | 0.00 | 2.18 | 0.38 | 57 | 1014.3 |
| 20260506162919 | 12 | 32 | 8.0 | 19.3 | 0.00 | 2.18 | 0.38 | 59 | 1014.0 |
| 20260506162413 | 11 | 336 | 9.7 | 19.3 | 0.00 | 2.21 | 0.38 | 57 | 1014.0 |
| 20260506161907 | 11 | 311 | 8.0 | 17.7 | 0.00 | 2.21 | 0.38 | 58 | 1013.8 |
| 20260506161401 | 12 | 332 | 8.0 | 17.7 | 0.00 | 2.21 | 0.38 | 59 | 1014.0 |
| 20260506161132 | 11 | 312 | 6.4 | 16.1 | 0.00 | 2.21 | 0.38 | 63 | 1014.4 |
| 20260506160621 | 11 | 327 | 6.4 | 16.1 | 0.00 | 2.24 | 0.38 | 60 | 1014.4 |
| 20260506155842 | 11 | 272 | 9.7 | 19.3 | 0.00 | 2.26 | 0.38 | 58 | 1014.3 |
| 20260506155337 | 11 | 330 | 9.7 | 19.3 | 0.00 | 2.26 | 0.38 | 59 | 1014.2 |
| 20260506154830 | 11 | 327 | 8.0 | 19.3 | 0.00 | 2.26 | 0.38 | 59 | 1014.2 |
| 20260506154600 | 11 | 300 | 8.0 | 19.3 | 0.00 | 2.26 | 0.38 | 61 | 1014.2 |
| 20260506153829 | 11 | 298 | 8.0 | 19.3 | 0.00 | 2.26 | 0.38 | 60 | 1013.9 |
| 20260506153329 | 11 | 350 | 8.0 | 17.7 | 0.00 | 2.26 | 0.38 | 61 | 1013.9 |
| 20260506152829 | 11 | 336 | 6.4 | 17.7 | 0.00 | 2.26 | 0.38 | 62 | 1013.9 |
| 20260506152328 | 11 | 324 | 6.4 | 17.7 | 0.00 | 2.26 | 0.38 | 65 | 1013.9 |
| 20260506151829 | 11 | 324 | 9.7 | 17.7 | 0.00 | 2.26 | 0.38 | 65 | 1013.9 |
| 20260506151329 | 11 | 51 | 9.7 | 17.7 | 0.00 | 2.26 | 0.38 | 68 | 1013.7 |
| 20260506150828 | 11 | 315 | 9.7 | 22.5 | 0.00 | 2.26 | 0.38 | 70 | 1013.5 |
| 20260506150327 | 10 | 280 | 9.7 | 22.5 | 0.00 | 2.26 | 0.38 | 66 | 1013.6 |
| 20260506145827 | 10 | 321 | 9.7 | 22.5 | 0.00 | 2.26 | 0.38 | 70 | 1013.4 |
| 20260506145327 | 10 | 318 | 9.7 | 22.5 | 0.00 | 2.26 | 0.38 | 68 | 1013.5 |
| 20260506144827 | 10 | 0 | 6.4 | 22.5 | 0.00 | 2.26 | 0.38 | 69 | 1013.5 |
| 20260506144327 | 10 | 333 | 6.4 | 22.5 | 0.00 | 2.26 | 0.38 | 69 | 1013.4 |
| 20260506143828 | 10 | 329 | 8.0 | 19.3 | 0.00 | 2.26 | 0.38 | 72 | 1013.3 |
| 20260506143327 | 10 | 313 | 9.7 | 19.3 | 0.00 | 2.26 | 0.38 | 72 | 1013.4 |
| 20260506142827 | 10 | 295 | 8.0 | 19.3 | 0.00 | 2.26 | 0.38 | 71 | 1013.4 |
| 20260506142326 | 10 | 323 | 8.0 | 17.7 | 0.00 | 2.26 | 0.38 | 73 | 1013.6 |
| 20260506141821 | 10 | 333 | 6.4 | 17.7 | 0.00 | 2.26 | 0.38 | 74 | 1013.4 |
| 20260506141315 | 9 | 330 | 8.0 | 17.7 | 0.00 | 2.26 | 0.38 | 74 | 1013.3 |
| 20260506140815 | 9 | 329 | 9.7 | 17.7 | 0.00 | 2.26 | 0.38 | 74 | 1013.2 |
| 20260506140546 | 10 | 307 | 6.4 | 17.7 | 0.00 | 2.26 | 0.38 | 78 | 1013.1 |
| 20260506140422 | 9 | 0 | 6.4 | 17.7 | 0.00 | 2.26 | 0.38 | 80 | 1013.0 |
| 20260506135315 | 9 | 0 | 8.0 | 17.7 | 0.00 | 2.26 | 0.38 | 79 | 1013.0 |
| 20260506134815 | 9 | 324 | 9.7 | 17.7 | 0.00 | 2.26 | 0.38 | 83 | 1013.0 |
| 20260506134314 | 8 | 5 | 11.3 | 17.7 | 0.00 | 2.26 | 0.38 | 82 | 1013.0 |
| 20260506133815 | 8 | 328 | 8.0 | 14.5 | 0.00 | 2.26 | 0.38 | 84 | 1013.1 |
| 20260506133315 | 8 | 318 | 6.4 | 14.5 | 0.00 | 2.26 | 0.38 | 86 | 1013.0 |
| 20260506132814 | 8 | 327 | 6.4 | 14.5 | 0.00 | 2.26 | 0.38 | 88 | 1013.0 |
| 20260506132314 | 8 | 0 | 4.8 | 14.5 | 0.00 | 2.26 | 0.38 | 89 | 1013.0 |
| 20260506132046 | 8 | 0 | 4.8 | 12.9 | 0.00 | 2.26 | 0.38 | 90 | 1013.0 |
| 20260506131315 | 7 | 0 | 6.4 | 12.9 | 0.00 | 2.26 | 0.38 | 90 | 1013.1 |
| 20260506130813 | 7 | 0 | 6.4 | 9.7 | 0.00 | 2.26 | 0.38 | 91 | 1013.0 |
| 20260506130312 | 7 | 0 | 6.4 | 9.7 | 0.00 | 2.26 | 0.38 | 91 | 1012.9 |
| 20260506130044 | 7 | 0 | 6.4 | 12.9 | 0.00 | 2.26 | 0.38 | 91 | 1012.8 |
| 20260506125543 | 7 | 0 | 6.4 | 12.9 | 0.00 | 2.26 | 0.38 | 92 | 1012.8 |
| 20260506124813 | 7 | 0 | 6.4 | 12.9 | 0.00 | 2.26 | 0.38 | 92 | 1012.7 |
| 20260506124312 | 7 | 0 | 6.4 | 12.9 | 0.00 | 2.26 | 0.38 | 93 | 1012.7 |
| 20260506124043 | 7 | 0 | 6.4 | 12.9 | 0.00 | 2.26 | 0.38 | 93 | 1012.8 |
| 20260506123312 | 6 | 0 | 6.4 | 12.9 | 0.00 | 2.26 | 0.38 | 93 | 1012.7 |
| 20260506122813 | 6 | 0 | 6.4 | 12.9 | 0.00 | 2.26 | 0.38 | 94 | 1012.5 |
| 20260506122308 | 6 | 0 | 3.2 | 8.0 | 0.00 | 2.26 | 0.38 | 94 | 1012.4 |
| 20260506121808 | 6 | 0 | 3.2 | 8.0 | 0.00 | 2.26 | 0.38 | 95 | 1012.3 |
| 20260506121308 | 6 | 0 | 4.8 | 11.3 | 0.00 | 2.26 | 0.38 | 95 | 1012.2 |
| 20260506121039 | 6 | 0 | 4.8 | 11.3 | 0.00 | 2.26 | 0.38 | 95 | 1012.2 |
| 20260506120309 | 6 | 0 | 4.8 | 11.3 | 0.00 | 2.26 | 0.38 | 95 | 1012.4 |
| 20260506115808 | 6 | 259 | 4.8 | 11.3 | 0.00 | 2.26 | 0.38 | 95 | 1012.3 |
| 20260506115307 | 6 | 272 | 4.8 | 11.3 | 0.00 | 2.26 | 0.38 | 95 | 1012.2 |
| 20260506114807 | 6 | 269 | 4.8 | 11.3 | 0.00 | 2.26 | 0.38 | 95 | 1012.0 |
| 20260506114307 | 6 | 280 | 4.8 | 9.7 | 0.00 | 2.26 | 0.38 | 95 | 1011.9 |
| 20260506113807 | 6 | 295 | 4.8 | 8.0 | 0.00 | 2.26 | 0.38 | 95 | 1011.7 |